GLO1458 SBJP-SBBR

Flight info

Callsign GLO1458
Flight time 2h 27m
Altitude 37000
Route KUKES UZ59 VADOP
Aircraft B38M/L-L/2000

Departure

Time 2026-04-23 12:11
Airport Presidente Castro Pinto International Airport (SBJP)

Arrival

Time 2026-04-23 14:38
Airport Presidente Juscelino Kubitschek International Airport (SBBR)
Time Latitude Longitude Altitude Speed Heading
2026-04-23 11:42 -7.14579 -34.94984 223 ft 0 kts 136°
2026-04-23 12:02 -7.14572 -34.94992 222 ft 2 kts 133°
2026-04-23 12:02 -7.14561 -34.95002 222 ft 2 kts 137°
2026-04-23 12:02 -7.14548 -34.95008 222 ft 2 kts 185°
2026-04-23 12:02 -7.14535 -34.95003 222 ft 0 kts 221°
2026-04-23 12:03 -7.14531 -34.94999 222 ft 1 kts 228°
2026-04-23 12:03 -7.14529 -34.94997 222 ft 0 kts 227°
2026-04-23 12:05 -7.14534 -34.95002 222 ft 1 kts 225°
2026-04-23 12:05 -7.14548 -34.95016 222 ft 3 kts 225°
2026-04-23 12:05 -7.14572 -34.95040 222 ft 5 kts 224°
2026-04-23 12:05 -7.14608 -34.95060 222 ft 6 kts 169°
2026-04-23 12:06 -7.14654 -34.95038 222 ft 8 kts 147°
2026-04-23 12:06 -7.14702 -34.95001 222 ft 6 kts 153°
2026-04-23 12:06 -7.14754 -34.95030 222 ft 2 kts 218°
2026-04-23 12:07 -7.14761 -34.95038 222 ft 0 kts 233°
2026-04-23 12:07 -7.14762 -34.95039 222 ft 0 kts 233°
2026-04-23 12:07 -7.14763 -34.95041 222 ft 0 kts 233°
2026-04-23 12:07 -7.14768 -34.95047 222 ft 4 kts 232°
2026-04-23 12:08 -7.14801 -34.95100 222 ft 12 kts 267°
2026-04-23 12:08 -7.14735 -34.95194 222 ft 21 kts 316°
2026-04-23 12:08 -7.14624 -34.95305 222 ft 21 kts 314°
2026-04-23 12:08 -7.14520 -34.95409 222 ft 20 kts 315°
2026-04-23 12:09 -7.14426 -34.95504 222 ft 18 kts 315°
2026-04-23 12:09 -7.14336 -34.95595 222 ft 18 kts 315°
2026-04-23 12:09 -7.14241 -34.95686 222 ft 19 kts 316°
2026-04-23 12:09 -7.14146 -34.95778 222 ft 17 kts 321°
2026-04-23 12:10 -7.14048 -34.95819 222 ft 12 kts 310°
2026-04-23 12:10 -7.14075 -34.95850 222 ft 4 kts 139°
2026-04-23 12:10 -7.14089 -34.95836 222 ft 16 kts 135°
2026-04-23 12:10 -7.14354 -34.95572 222 ft 90 kts 135°
2026-04-23 12:11 -7.14962 -34.94963 223 ft 153 kts 134°
2026-04-23 12:11 -7.15783 -34.94149 591 ft 174 kts 136°
2026-04-23 12:11 -7.16757 -34.93363 1181 ft 185 kts 144°
2026-04-23 12:11 -7.17828 -34.92643 1819 ft 193 kts 144°
2026-04-23 12:12 -7.18958 -34.91765 2036 ft 216 kts 139°
2026-04-23 12:12 -7.20100 -34.90653 2242 ft 242 kts 133°
2026-04-23 12:12 -7.21256 -34.89363 2792 ft 253 kts 132°
2026-04-23 12:12 -7.22467 -34.88048 3472 ft 259 kts 134°
2026-04-23 12:13 -7.23717 -34.86735 4197 ft 262 kts 134°
2026-04-23 12:13 -7.25013 -34.85392 4930 ft 266 kts 135°
2026-04-23 12:13 -7.26300 -34.84063 5648 ft 268 kts 135°
2026-04-23 12:13 -7.27608 -34.82713 6355 ft 271 kts 135°
2026-04-23 12:14 -7.28913 -34.81347 7045 ft 274 kts 135°
2026-04-23 12:14 -7.30242 -34.79936 7735 ft 278 kts 134°
2026-04-23 12:14 -7.31580 -34.78505 8424 ft 281 kts 134°
2026-04-23 12:14 -7.32931 -34.77057 8960 ft 288 kts 135°
2026-04-23 12:15 -7.34320 -34.75574 8984 ft 290 kts 135°
2026-04-23 12:15 -7.35682 -34.74131 8992 ft 283 kts 135°
2026-04-23 12:15 -7.37051 -34.72698 8996 ft 283 kts 135°
2026-04-23 12:15 -7.38419 -34.71277 8993 ft 284 kts 135°
2026-04-23 12:16 -7.39821 -34.69832 8993 ft 284 kts 136°
2026-04-23 12:16 -7.41197 -34.68417 8994 ft 284 kts 136°
2026-04-23 12:16 -7.42598 -34.66985 8994 ft 284 kts 136°
2026-04-23 12:16 -7.44006 -34.65561 8993 ft 284 kts 136°
2026-04-23 12:17 -7.45409 -34.64156 9012 ft 286 kts 139°
2026-04-23 12:17 -7.46975 -34.62922 9659 ft 287 kts 148°
2026-04-23 12:17 -7.48703 -34.61930 10269 ft 292 kts 156°
2026-04-23 12:17 -7.50703 -34.61199 10351 ft 316 kts 167°
2026-04-23 12:18 -7.52915 -34.60867 10741 ft 327 kts 176°
2026-04-23 12:18 -7.55223 -34.60736 11305 ft 333 kts 178°
2026-04-23 12:18 -7.57558 -34.60637 11952 ft 336 kts 178°
2026-04-23 12:18 -7.59891 -34.60525 12588 ft 339 kts 178°
2026-04-23 12:19 -7.62268 -34.60407 13225 ft 342 kts 180°
2026-04-23 12:19 -7.64628 -34.60528 13844 ft 344 kts 188°
2026-04-23 12:19 -7.66996 -34.61002 14481 ft 346 kts 196°
2026-04-23 12:19 -7.69267 -34.61813 15106 ft 349 kts 204°
2026-04-23 12:20 -7.71412 -34.62950 15727 ft 351 kts 213°
2026-04-23 12:20 -7.73386 -34.64436 16331 ft 354 kts 221°
2026-04-23 12:20 -7.75134 -34.66163 16936 ft 356 kts 227°
2026-04-23 12:20 -7.76785 -34.68019 17503 ft 359 kts 229°
2026-04-23 12:21 -7.78422 -34.69938 18072 ft 361 kts 230°
2026-04-23 12:21 -7.80055 -34.71869 18625 ft 364 kts 230°
2026-04-23 12:21 -7.81702 -34.73819 19167 ft 367 kts 230°
2026-04-23 12:21 -7.83353 -34.75773 19700 ft 369 kts 230°
2026-04-23 12:22 -7.85022 -34.77746 20215 ft 372 kts 230°
2026-04-23 12:22 -7.86709 -34.79741 20721 ft 375 kts 230°
2026-04-23 12:22 -7.88397 -34.81737 21198 ft 377 kts 231°
2026-04-23 12:22 -7.90146 -34.83722 21665 ft 381 kts 229°
2026-04-23 12:23 -7.91958 -34.85674 22120 ft 383 kts 228°
2026-04-23 12:23 -7.93797 -34.87643 22560 ft 386 kts 228°
2026-04-23 12:23 -7.95634 -34.89615 22988 ft 389 kts 228°
2026-04-23 12:23 -7.97491 -34.91613 23402 ft 392 kts 229°
2026-04-23 12:24 -7.99334 -34.93601 23807 ft 395 kts 229°
2026-04-23 12:24 -8.01209 -34.95626 24199 ft 398 kts 229°
2026-04-23 12:24 -8.03115 -34.97695 24589 ft 400 kts 230°
2026-04-23 12:24 -8.04896 -34.99855 24971 ft 402 kts 234°
2026-04-23 12:25 -8.06525 -35.02123 25326 ft 404 kts 238°
2026-04-23 12:25 -8.08015 -35.04556 25695 ft 406 kts 242°
2026-04-23 12:25 -8.09351 -35.07044 26054 ft 408 kts 244°
2026-04-23 12:25 -8.10618 -35.09620 26397 ft 410 kts 246°
2026-04-23 12:26 -8.11828 -35.12219 26740 ft 412 kts 247°
2026-04-23 12:26 -8.13019 -35.14870 27071 ft 415 kts 248°
2026-04-23 12:26 -8.14210 -35.17583 27404 ft 417 kts 248°
2026-04-23 12:26 -8.15362 -35.20245 27716 ft 419 kts 248°
2026-04-23 12:27 -8.16525 -35.22959 28025 ft 422 kts 249°
2026-04-23 12:27 -8.17688 -35.25688 28334 ft 424 kts 249°
2026-04-23 12:27 -8.18852 -35.28431 28630 ft 426 kts 249°
2026-04-23 12:27 -8.20029 -35.31215 28916 ft 429 kts 249°
2026-04-23 12:28 -8.21204 -35.33997 29203 ft 431 kts 249°
2026-04-23 12:28 -8.22378 -35.36783 29473 ft 433 kts 249°
2026-04-23 12:28 -8.23559 -35.39590 29750 ft 435 kts 249°
2026-04-23 12:28 -8.24743 -35.42404 30001 ft 438 kts 249°
2026-04-23 12:29 -8.25927 -35.45222 30274 ft 439 kts 249°
2026-04-23 12:29 -8.27126 -35.48077 30591 ft 440 kts 249°
2026-04-23 12:29 -8.28324 -35.50931 30920 ft 440 kts 249°
2026-04-23 12:29 -8.29501 -35.53735 31242 ft 440 kts 250°
2026-04-23 12:30 -8.30691 -35.56573 31564 ft 439 kts 250°
2026-04-23 12:30 -8.31881 -35.59411 31880 ft 439 kts 250°
2026-04-23 12:30 -8.33079 -35.62269 32190 ft 439 kts 250°
2026-04-23 12:30 -8.34270 -35.65111 32497 ft 439 kts 250°
2026-04-23 12:31 -8.35457 -35.67946 32793 ft 439 kts 250°
2026-04-23 12:31 -8.36644 -35.70779 33092 ft 439 kts 250°
2026-04-23 12:31 -8.37817 -35.73582 33377 ft 439 kts 250°
2026-04-23 12:31 -8.39016 -35.76449 33654 ft 439 kts 250°
2026-04-23 12:32 -8.40213 -35.79308 33937 ft 439 kts 250°
2026-04-23 12:32 -8.41416 -35.82184 34219 ft 438 kts 250°
2026-04-23 12:32 -8.42603 -35.85022 34514 ft 438 kts 250°
2026-04-23 12:32 -8.43784 -35.87846 34800 ft 437 kts 250°
2026-04-23 12:33 -8.44961 -35.90661 35080 ft 436 kts 250°
2026-04-23 12:33 -8.46134 -35.93469 35352 ft 435 kts 250°
2026-04-23 12:33 -8.47299 -35.96257 35614 ft 435 kts 250°
2026-04-23 12:33 -8.48478 -35.99078 35874 ft 434 kts 250°
2026-04-23 12:34 -8.49652 -36.01889 36121 ft 433 kts 250°
2026-04-23 12:34 -8.50811 -36.04666 36358 ft 433 kts 250°
2026-04-23 12:34 -8.51976 -36.07458 36573 ft 433 kts 250°
2026-04-23 12:34 -8.53149 -36.10269 36788 ft 433 kts 250°
2026-04-23 12:35 -8.54317 -36.13068 36979 ft 433 kts 250°
2026-04-23 12:35 -8.55487 -36.15873 37023 ft 436 kts 250°
2026-04-23 12:35 -8.57824 -36.21477 37019 ft 433 kts 250°
2026-04-23 12:36 -8.60155 -36.27068 37020 ft 431 kts 250°
2026-04-23 12:36 -8.62480 -36.32650 37020 ft 432 kts 250°
2026-04-23 12:37 -8.64809 -36.38244 37020 ft 433 kts 250°
2026-04-23 12:37 -8.67130 -36.43821 37020 ft 432 kts 250°
2026-04-23 12:38 -8.69468 -36.49440 37020 ft 432 kts 250°
2026-04-23 12:38 -8.71780 -36.55000 37020 ft 432 kts 250°
2026-04-23 12:39 -8.74110 -36.60607 37020 ft 432 kts 250°
2026-04-23 12:39 -8.76437 -36.66209 37020 ft 432 kts 250°
2026-04-23 12:40 -8.78759 -36.71801 37020 ft 432 kts 250°
2026-04-23 12:40 -8.81083 -36.77399 37020 ft 432 kts 250°
2026-04-23 12:41 -8.83400 -36.82986 37020 ft 432 kts 250°
2026-04-23 12:41 -8.85732 -36.88609 37020 ft 432 kts 250°
2026-04-23 12:42 -8.88045 -36.94190 37020 ft 432 kts 250°
2026-04-23 12:42 -8.90363 -36.99786 37020 ft 432 kts 250°
2026-04-23 12:43 -8.92679 -37.05380 37020 ft 432 kts 250°
2026-04-23 12:43 -8.95002 -37.10994 37020 ft 432 kts 250°
2026-04-23 12:44 -8.97317 -37.16590 37019 ft 433 kts 250°
2026-04-23 12:44 -8.99655 -37.22229 37020 ft 436 kts 248°
2026-04-23 12:45 -9.02434 -37.27712 37020 ft 441 kts 242°
2026-04-23 12:45 -9.05708 -37.32982 37020 ft 443 kts 238°
2026-04-23 12:46 -9.09090 -37.38198 37019 ft 442 kts 237°
2026-04-23 12:46 -9.12426 -37.43323 37020 ft 440 kts 237°
2026-04-23 12:47 -9.15800 -37.48497 37020 ft 439 kts 237°
2026-04-23 12:47 -9.19158 -37.53641 37020 ft 440 kts 237°
2026-04-23 12:48 -9.22522 -37.58793 37020 ft 441 kts 237°
2026-04-23 12:48 -9.25896 -37.63961 37020 ft 440 kts 237°
2026-04-23 12:49 -9.29259 -37.69114 37020 ft 440 kts 237°
2026-04-23 12:49 -9.32634 -37.74286 37020 ft 440 kts 237°
2026-04-23 12:50 -9.36004 -37.79454 37020 ft 440 kts 237°
2026-04-23 12:50 -9.39378 -37.84627 37020 ft 440 kts 237°
2026-04-23 12:51 -9.42733 -37.89776 37020 ft 440 kts 237°
2026-04-23 12:51 -9.46086 -37.94923 37020 ft 440 kts 237°
2026-04-23 12:52 -9.49455 -38.00096 37020 ft 440 kts 237°
2026-04-23 12:52 -9.52824 -38.05272 37020 ft 440 kts 237°
2026-04-23 12:53 -9.56203 -38.10465 37020 ft 440 kts 237°
2026-04-23 12:53 -9.59569 -38.15641 37020 ft 440 kts 237°
2026-04-23 12:54 -9.62926 -38.20805 37020 ft 440 kts 237°
2026-04-23 12:54 -9.66300 -38.25996 37020 ft 440 kts 237°
2026-04-23 12:55 -9.69645 -38.31147 37020 ft 440 kts 237°
2026-04-23 12:55 -9.73031 -38.36362 37047 ft 440 kts 237°
2026-04-23 12:56 -9.76372 -38.41513 37047 ft 441 kts 237°
2026-04-23 12:56 -9.79719 -38.46710 37047 ft 440 kts 237°
2026-04-23 12:57 -9.83065 -38.51907 37047 ft 440 kts 237°
2026-04-23 12:57 -9.86418 -38.57123 37047 ft 440 kts 237°
2026-04-23 12:58 -9.89738 -38.62285 37047 ft 440 kts 237°
2026-04-23 12:58 -9.93064 -38.67454 37047 ft 440 kts 237°
2026-04-23 12:59 -9.96415 -38.72661 37047 ft 440 kts 237°
2026-04-23 12:59 -9.99779 -38.77891 37047 ft 440 kts 237°
2026-04-23 13:00 -10.03192 -38.83198 37047 ft 440 kts 237°
2026-04-23 13:00 -10.06563 -38.88442 37047 ft 440 kts 237°
2026-04-23 13:01 -10.09967 -38.93740 37047 ft 443 kts 237°
2026-04-23 13:01 -10.13337 -38.98989 37047 ft 449 kts 237°
2026-04-23 13:02 -10.16790 -39.04367 37047 ft 452 kts 236°
2026-04-23 13:02 -10.20165 -39.09627 37046 ft 452 kts 235°
2026-04-23 13:03 -10.23622 -39.15018 37046 ft 451 kts 235°
2026-04-23 13:03 -10.26998 -39.20284 37047 ft 450 kts 235°
2026-04-23 13:04 -10.30406 -39.25602 37047 ft 451 kts 235°
2026-04-23 13:04 -10.33848 -39.30975 37047 ft 451 kts 235°
2026-04-23 13:05 -10.37243 -39.36279 37046 ft 451 kts 235°
2026-04-23 13:05 -10.40614 -39.41586 37047 ft 451 kts 235°
2026-04-23 13:06 -10.45706 -39.49649 37047 ft 451 kts 235°
2026-04-23 13:07 -10.49036 -39.54903 37047 ft 451 kts 235°
2026-04-23 13:07 -10.52447 -39.60285 37047 ft 451 kts 235°
2026-04-23 13:08 -10.55829 -39.65620 37047 ft 450 kts 235°
2026-04-23 13:08 -10.59285 -39.71072 37047 ft 450 kts 235°
2026-04-23 13:09 -10.62686 -39.76438 37047 ft 451 kts 235°
2026-04-23 13:09 -10.66045 -39.81741 37047 ft 451 kts 235°
2026-04-23 13:10 -10.69425 -39.87081 37047 ft 451 kts 235°
2026-04-23 13:10 -10.72841 -39.92477 37049 ft 458 kts 235°
2026-04-23 13:11 -10.76292 -39.97933 37046 ft 464 kts 235°
2026-04-23 13:11 -10.79734 -40.03379 37046 ft 463 kts 235°
2026-04-23 13:12 -10.83179 -40.08832 37046 ft 461 kts 235°
2026-04-23 13:12 -10.86583 -40.14222 37046 ft 462 kts 235°
2026-04-23 13:13 -10.90086 -40.19782 37047 ft 462 kts 235°
2026-04-23 13:13 -10.93279 -40.24851 37047 ft 462 kts 235°
2026-04-23 13:14 -10.96992 -40.30742 37047 ft 462 kts 235°
2026-04-23 13:14 -11.00485 -40.36281 37047 ft 462 kts 234°
2026-04-23 13:15 -11.03873 -40.41656 37047 ft 461 kts 234°
2026-04-23 13:15 -11.07394 -40.47240 37047 ft 461 kts 234°
2026-04-23 13:16 -11.10822 -40.52696 37047 ft 462 kts 234°
2026-04-23 13:16 -11.14263 -40.58181 37047 ft 462 kts 234°
2026-04-23 13:17 -11.17611 -40.63516 37047 ft 462 kts 234°
2026-04-23 13:17 -11.21170 -40.69186 37047 ft 461 kts 235°
2026-04-23 13:18 -11.24619 -40.74709 37047 ft 461 kts 235°
2026-04-23 13:18 -11.28039 -40.80264 37047 ft 462 kts 235°
2026-04-23 13:19 -11.31485 -40.85862 37047 ft 462 kts 234°
2026-04-23 13:19 -11.34924 -40.91445 37047 ft 463 kts 234°
2026-04-23 13:20 -11.38359 -40.97021 37047 ft 463 kts 233°
2026-04-23 13:20 -11.41778 -41.02575 37047 ft 462 kts 233°
2026-04-23 13:21 -11.45172 -41.08088 37046 ft 461 kts 233°
2026-04-23 13:21 -11.48575 -41.13618 37047 ft 461 kts 233°
2026-04-23 13:22 -11.51987 -41.19167 37047 ft 462 kts 233°
2026-04-23 13:22 -11.55390 -41.24727 37047 ft 461 kts 233°
2026-04-23 13:23 -11.58530 -41.29857 37047 ft 461 kts 233°
2026-04-23 13:23 -11.62114 -41.35709 37047 ft 462 kts 233°
2026-04-23 13:24 -11.65526 -41.41281 37047 ft 461 kts 233°
2026-04-23 13:24 -11.68929 -41.46839 37047 ft 461 kts 233°
2026-04-23 13:25 -11.72341 -41.52419 37047 ft 462 kts 233°
2026-04-23 13:25 -11.75723 -41.57952 37047 ft 461 kts 233°
2026-04-23 13:26 -11.79125 -41.63521 37047 ft 461 kts 233°
2026-04-23 13:26 -11.82530 -41.69091 37047 ft 461 kts 233°
2026-04-23 13:27 -11.85915 -41.74633 37047 ft 462 kts 233°
2026-04-23 13:27 -11.89310 -41.80191 37047 ft 462 kts 233°
2026-04-23 13:28 -11.92728 -41.85792 37047 ft 462 kts 233°
2026-04-23 13:28 -11.96083 -41.91292 37047 ft 461 kts 233°
2026-04-23 13:29 -11.99429 -41.96779 37047 ft 462 kts 233°
2026-04-23 13:29 -12.02821 -42.02346 37047 ft 462 kts 233°
2026-04-23 13:30 -12.06198 -42.07892 37047 ft 461 kts 233°
2026-04-23 13:30 -12.09577 -42.13442 37047 ft 462 kts 233°
2026-04-23 13:31 -12.12974 -42.19027 37047 ft 462 kts 233°
2026-04-23 13:31 -12.16353 -42.24585 37047 ft 462 kts 233°
2026-04-23 13:32 -12.19737 -42.30154 37047 ft 461 kts 233°
2026-04-23 13:32 -12.23100 -42.35693 37047 ft 462 kts 233°
2026-04-23 13:33 -12.26477 -42.41257 37047 ft 462 kts 233°
2026-04-23 13:33 -12.29870 -42.46865 37047 ft 462 kts 233°
2026-04-23 13:34 -12.33229 -42.52437 37047 ft 462 kts 233°
2026-04-23 13:34 -12.36592 -42.58005 37047 ft 462 kts 233°
2026-04-23 13:35 -12.39966 -42.63588 37047 ft 462 kts 233°
2026-04-23 13:35 -12.43327 -42.69148 37047 ft 461 kts 233°
2026-04-23 13:36 -12.46701 -42.74730 37047 ft 462 kts 233°
2026-04-23 13:36 -12.50051 -42.80274 37047 ft 462 kts 233°
2026-04-23 13:37 -12.53429 -42.85870 37047 ft 462 kts 233°
2026-04-23 13:37 -12.56795 -42.91460 37047 ft 462 kts 233°
2026-04-23 13:38 -12.60157 -42.97042 37047 ft 462 kts 233°
2026-04-23 13:38 -12.63513 -43.02614 37047 ft 459 kts 233°
2026-04-23 13:39 -12.66832 -43.08126 37046 ft 455 kts 233°
2026-04-23 13:39 -12.70127 -43.13599 37047 ft 452 kts 233°
2026-04-23 13:40 -12.73424 -43.19079 37047 ft 449 kts 233°
2026-04-23 13:40 -12.76659 -43.24457 37047 ft 447 kts 233°
2026-04-23 13:41 -12.79912 -43.29866 37113 ft 446 kts 233°
2026-04-23 13:41 -12.83177 -43.35300 37155 ft 449 kts 233°
2026-04-23 13:42 -12.86438 -43.40729 37154 ft 449 kts 233°
2026-04-23 13:42 -12.89694 -43.46158 37154 ft 448 kts 233°
2026-04-23 13:43 -12.92945 -43.51579 37155 ft 448 kts 233°
2026-04-23 13:43 -12.96211 -43.57027 37155 ft 448 kts 233°
2026-04-23 13:44 -12.99456 -43.62443 37155 ft 449 kts 233°
2026-04-23 13:44 -13.02741 -43.67930 37155 ft 451 kts 233°
2026-04-23 13:45 -13.06025 -43.73418 37155 ft 452 kts 233°
2026-04-23 13:45 -13.09310 -43.78912 37155 ft 453 kts 234°
2026-04-23 13:46 -13.12597 -43.84413 37155 ft 454 kts 234°
2026-04-23 13:46 -13.15895 -43.89936 37155 ft 454 kts 234°
2026-04-23 13:47 -13.19196 -43.95468 37155 ft 454 kts 234°
2026-04-23 13:47 -13.22478 -44.00971 37155 ft 454 kts 234°
2026-04-23 13:48 -13.25772 -44.06498 37155 ft 454 kts 234°
2026-04-23 13:48 -13.29091 -44.12067 37158 ft 459 kts 234°
2026-04-23 13:49 -13.32431 -44.17711 37155 ft 466 kts 234°
2026-04-23 13:49 -13.35783 -44.23381 37154 ft 468 kts 234°
2026-04-23 13:50 -13.39166 -44.29094 37154 ft 466 kts 234°
2026-04-23 13:50 -13.42528 -44.34764 37155 ft 465 kts 234°
2026-04-23 13:51 -13.45890 -44.40431 37157 ft 466 kts 234°
2026-04-23 13:51 -13.49260 -44.46111 37166 ft 466 kts 234°
2026-04-23 13:52 -13.52643 -44.51817 37174 ft 466 kts 234°
2026-04-23 13:52 -13.55994 -44.57472 37179 ft 466 kts 234°
2026-04-23 13:53 -13.59343 -44.63126 37182 ft 466 kts 234°
2026-04-23 13:53 -13.62722 -44.68834 37182 ft 466 kts 234°
2026-04-23 13:54 -13.66066 -44.74487 37182 ft 466 kts 234°
2026-04-23 13:54 -13.69425 -44.80168 37182 ft 466 kts 234°
2026-04-23 13:55 -13.72783 -44.85852 37182 ft 466 kts 234°
2026-04-23 13:55 -13.76157 -44.91568 37182 ft 465 kts 234°
2026-04-23 13:56 -13.79505 -44.97245 37181 ft 459 kts 235°
2026-04-23 13:56 -13.82819 -45.02866 37182 ft 455 kts 235°
2026-04-23 13:57 -13.86099 -45.08432 37182 ft 453 kts 236°
2026-04-23 13:57 -13.89345 -45.13941 37182 ft 452 kts 236°
2026-04-23 13:58 -13.92582 -45.19507 37182 ft 453 kts 237°
2026-04-23 13:58 -13.95727 -45.25130 37182 ft 454 kts 238°
2026-04-23 13:59 -13.98793 -45.30765 37182 ft 454 kts 238°
2026-04-23 13:59 -14.01869 -45.36486 37182 ft 454 kts 238°
2026-04-23 14:00 -14.04423 -45.41209 37186 ft 453 kts 238°
2026-04-23 14:00 -14.08055 -45.47773 37193 ft 453 kts 237°
2026-04-23 14:01 -14.11258 -45.53345 37200 ft 453 kts 236°
2026-04-23 14:01 -14.14567 -45.58871 37206 ft 453 kts 235°
2026-04-23 14:02 -14.17942 -45.64322 37209 ft 452 kts 234°
2026-04-23 14:02 -14.21373 -45.69766 37209 ft 452 kts 234°
2026-04-23 14:03 -14.24799 -45.75214 37209 ft 452 kts 234°
2026-04-23 14:03 -14.28165 -45.80705 37209 ft 453 kts 235°
2026-04-23 14:04 -14.31445 -45.86191 37209 ft 453 kts 236°
2026-04-23 14:04 -14.34736 -45.91768 37209 ft 453 kts 236°
2026-04-23 14:05 -14.37981 -45.97300 37209 ft 453 kts 236°
2026-04-23 14:05 -14.41222 -46.02850 37209 ft 453 kts 236°
2026-04-23 14:06 -14.44469 -46.08425 37209 ft 453 kts 236°
2026-04-23 14:06 -14.47708 -46.13994 37209 ft 453 kts 236°
2026-04-23 14:07 -14.50950 -46.19577 37209 ft 453 kts 236°
2026-04-23 14:07 -14.55785 -46.27912 37209 ft 453 kts 236°
2026-04-23 14:08 -14.59046 -46.33466 37208 ft 452 kts 233°
2026-04-23 14:08 -14.62734 -46.38692 37209 ft 450 kts 229°
2026-04-23 14:09 -14.66712 -46.43670 37209 ft 450 kts 227°
2026-04-23 14:09 -14.70753 -46.48633 37209 ft 449 kts 227°
2026-04-23 14:10 -14.74791 -46.53575 37209 ft 449 kts 227°
2026-04-23 14:10 -14.78816 -46.58492 37205 ft 445 kts 227°
2026-04-23 14:11 -14.80771 -46.60882 37205 ft 433 kts 227°
2026-04-23 14:11 -14.82697 -46.63236 37209 ft 427 kts 227°
2026-04-23 14:11 -14.86545 -46.67932 37211 ft 431 kts 227°
2026-04-23 14:12 -14.90430 -46.72674 37209 ft 434 kts 227°
2026-04-23 14:12 -14.94312 -46.77417 37208 ft 431 kts 227°
2026-04-23 14:13 -14.98205 -46.82175 37209 ft 430 kts 228°
2026-04-23 14:13 -15.02029 -46.86852 36608 ft 425 kts 228°
2026-04-23 14:14 -15.03926 -46.89173 35956 ft 423 kts 229°
2026-04-23 14:14 -15.05814 -46.91484 35313 ft 420 kts 229°
2026-04-23 14:14 -15.07677 -46.93765 34670 ft 418 kts 229°
2026-04-23 14:14 -15.09547 -46.96055 34019 ft 421 kts 229°
2026-04-23 14:15 -15.11426 -46.98356 33351 ft 426 kts 229°
2026-04-23 14:15 -15.13355 -47.00718 32641 ft 427 kts 229°
2026-04-23 14:15 -15.15255 -47.03047 32090 ft 420 kts 229°
2026-04-23 14:15 -15.17119 -47.05334 31597 ft 414 kts 229°
2026-04-23 14:16 -15.18966 -47.07599 31085 ft 419 kts 229°
2026-04-23 14:16 -15.20846 -47.09909 30535 ft 417 kts 229°
2026-04-23 14:16 -15.22694 -47.12193 29995 ft 411 kts 229°
2026-04-23 14:16 -15.24507 -47.14434 29470 ft 405 kts 229°
2026-04-23 14:17 -15.26302 -47.16649 28951 ft 401 kts 229°
2026-04-23 14:17 -15.28107 -47.18876 28435 ft 407 kts 229°
2026-04-23 14:17 -15.29914 -47.21103 27893 ft 402 kts 229°
2026-04-23 14:17 -15.31702 -47.23308 27366 ft 396 kts 229°
2026-04-23 14:18 -15.33458 -47.25471 26852 ft 391 kts 229°
2026-04-23 14:18 -15.35186 -47.27602 26349 ft 392 kts 228°
2026-04-23 14:18 -15.36950 -47.29775 25829 ft 394 kts 228°
2026-04-23 14:18 -15.38698 -47.31937 25299 ft 389 kts 229°
2026-04-23 14:19 -15.40396 -47.34052 24794 ft 383 kts 229°
2026-04-23 14:19 -15.42083 -47.36169 24285 ft 378 kts 229°
2026-04-23 14:19 -15.43755 -47.38284 23791 ft 383 kts 229°
2026-04-23 14:19 -15.45425 -47.40408 23271 ft 381 kts 229°
2026-04-23 14:20 -15.47173 -47.42444 22759 ft 375 kts 224°
2026-04-23 14:20 -15.49013 -47.44310 22265 ft 370 kts 221°
2026-04-23 14:20 -15.50926 -47.46083 21768 ft 367 kts 218°
2026-04-23 14:20 -15.52914 -47.47744 21280 ft 372 kts 217°
2026-04-23 14:21 -15.54939 -47.49383 20766 ft 367 kts 216°
2026-04-23 14:21 -15.56949 -47.50969 20274 ft 362 kts 215°
2026-04-23 14:21 -15.58980 -47.52530 19781 ft 357 kts 214°
2026-04-23 14:21 -15.60979 -47.54035 19303 ft 359 kts 214°
2026-04-23 14:22 -15.63016 -47.55530 18815 ft 360 kts 213°
2026-04-23 14:22 -15.65048 -47.56972 18321 ft 355 kts 212°
2026-04-23 14:22 -15.67081 -47.58419 17836 ft 351 kts 213°
2026-04-23 14:22 -15.69056 -47.59840 17363 ft 347 kts 214°
2026-04-23 14:23 -15.70943 -47.61430 16852 ft 352 kts 223°
2026-04-23 14:23 -15.72546 -47.63342 16321 ft 352 kts 233°
2026-04-23 14:23 -15.73808 -47.65483 15804 ft 350 kts 243°
2026-04-23 14:23 -15.74706 -47.67734 15300 ft 347 kts 252°
2026-04-23 14:24 -15.75251 -47.70145 14826 ft 343 kts 261°
2026-04-23 14:24 -15.75543 -47.72590 14625 ft 334 kts 264°
2026-04-23 14:24 -15.75733 -47.74947 14541 ft 332 kts 265°
2026-04-23 14:24 -15.75899 -47.77313 14343 ft 321 kts 266°
2026-04-23 14:25 -15.76050 -47.79578 14158 ft 310 kts 266°
2026-04-23 14:25 -15.76197 -47.81813 13804 ft 307 kts 266°
2026-04-23 14:25 -15.76340 -47.84005 13452 ft 304 kts 266°
2026-04-23 14:25 -15.76483 -47.86191 13116 ft 301 kts 266°
2026-04-23 14:26 -15.76623 -47.88361 12781 ft 298 kts 266°
2026-04-23 14:26 -15.76761 -47.90495 12452 ft 295 kts 266°
2026-04-23 14:26 -15.76898 -47.92606 12128 ft 292 kts 266°
2026-04-23 14:26 -15.77033 -47.94700 11806 ft 289 kts 266°
2026-04-23 14:27 -15.77164 -47.96751 11491 ft 286 kts 266°
2026-04-23 14:27 -15.77297 -47.98803 11225 ft 281 kts 266°
2026-04-23 14:27 -15.77424 -48.00797 11205 ft 271 kts 266°
2026-04-23 14:27 -15.77548 -48.02742 11211 ft 271 kts 266°
2026-04-23 14:28 -15.77674 -48.04712 11192 ft 271 kts 266°
2026-04-23 14:28 -15.77799 -48.06661 11015 ft 265 kts 266°
2026-04-23 14:28 -15.77922 -48.08590 10751 ft 271 kts 266°
2026-04-23 14:28 -15.78046 -48.10528 10443 ft 270 kts 266°
2026-04-23 14:29 -15.78171 -48.12468 10143 ft 269 kts 266°
2026-04-23 14:29 -15.78295 -48.14413 9863 ft 264 kts 266°
2026-04-23 14:29 -15.78414 -48.16278 9566 ft 259 kts 266°
2026-04-23 14:29 -15.78530 -48.18095 9469 ft 242 kts 266°
2026-04-23 14:30 -15.78652 -48.19799 9340 ft 228 kts 261°
2026-04-23 14:30 -15.79211 -48.21262 9161 ft 212 kts 231°
2026-04-23 14:30 -15.80277 -48.22184 8984 ft 198 kts 203°
2026-04-23 14:30 -15.81587 -48.22496 8690 ft 192 kts 175°
2026-04-23 14:31 -15.82879 -48.22266 8474 ft 185 kts 159°
2026-04-23 14:31 -15.84053 -48.21712 8257 ft 184 kts 146°
2026-04-23 14:31 -15.85057 -48.20931 8037 ft 181 kts 134°
2026-04-23 14:31 -15.85884 -48.19939 7838 ft 179 kts 122°
2026-04-23 14:32 -15.86469 -48.18880 7646 ft 161 kts 114°
2026-04-23 14:32 -15.86925 -48.17833 7449 ft 156 kts 112°
2026-04-23 14:32 -15.87363 -48.16794 7308 ft 156 kts 112°
2026-04-23 14:32 -15.87700 -48.15727 7127 ft 157 kts 96°
2026-04-23 14:33 -15.87727 -48.14579 6810 ft 158 kts 87°
2026-04-23 14:33 -15.87664 -48.13462 6578 ft 149 kts 86°
2026-04-23 14:33 -15.87593 -48.12377 6604 ft 153 kts 86°
2026-04-23 14:33 -15.87520 -48.11250 6483 ft 158 kts 86°
2026-04-23 14:34 -15.87449 -48.10133 6401 ft 152 kts 86°
2026-04-23 14:34 -15.87378 -48.09018 6364 ft 153 kts 86°
2026-04-23 14:34 -15.87308 -48.07911 6290 ft 156 kts 86°
2026-04-23 14:34 -15.87236 -48.06777 6123 ft 155 kts 86°
2026-04-23 14:35 -15.87166 -48.05674 5929 ft 153 kts 86°
2026-04-23 14:35 -15.87095 -48.04565 5732 ft 153 kts 86°
2026-04-23 14:35 -15.87025 -48.03459 5524 ft 152 kts 86°
2026-04-23 14:35 -15.86956 -48.02361 5316 ft 152 kts 86°
2026-04-23 14:36 -15.86886 -48.01267 5108 ft 151 kts 86°
2026-04-23 14:36 -15.86818 -48.00185 4903 ft 151 kts 86°
2026-04-23 14:36 -15.86749 -47.99104 4699 ft 150 kts 86°
2026-04-23 14:36 -15.86679 -47.98009 4494 ft 150 kts 86°
2026-04-23 14:37 -15.86610 -47.96933 4291 ft 149 kts 86°
2026-04-23 14:37 -15.86541 -47.95858 4090 ft 149 kts 87°
2026-04-23 14:37 -15.86473 -47.94785 3890 ft 148 kts 87°
2026-04-23 14:37 -15.86401 -47.93715 3685 ft 148 kts 86°
2026-04-23 14:38 -15.86323 -47.92641 3482 ft 148 kts 87°
2026-04-23 14:38 -15.86265 -47.91671 3465 ft 109 kts 88°
2026-04-23 14:38 -15.86227 -47.91065 3475 ft 57 kts 85°
2026-04-23 14:38 -15.86243 -47.90848 3481 ft 12 kts 127°
2026-04-23 14:39 -15.86289 -47.90785 3484 ft 9 kts 128°
2026-04-23 14:39 -15.86327 -47.90740 3485 ft 6 kts 132°
2026-04-23 14:39 -15.86361 -47.90707 3486 ft 6 kts 157°
2026-04-23 14:39 -15.86397 -47.90734 3484 ft 9 kts 261°
2026-04-23 14:40 -15.86405 -47.90812 3485 ft 11 kts 265°
2026-04-23 14:40 -15.86412 -47.90903 3484 ft 14 kts 265°
2026-04-23 14:40 -15.86418 -47.91018 3481 ft 17 kts 266°
2026-04-23 14:40 -15.86427 -47.91162 3478 ft 21 kts 266°
2026-04-23 14:41 -15.86436 -47.91318 3475 ft 20 kts 273°
2026-04-23 14:41 -15.86444 -47.91463 3472 ft 19 kts 263°
2026-04-23 14:41 -15.86454 -47.91596 3472 ft 18 kts 265°
2026-04-23 14:41 -15.86509 -47.91631 3474 ft 8 kts 180°
2026-04-23 14:42 -15.86576 -47.91626 3475 ft 10 kts 175°
2026-04-23 14:42 -15.86662 -47.91619 3477 ft 13 kts 174°
2026-04-23 14:42 -15.86765 -47.91610 3479 ft 16 kts 176°
2026-04-23 14:42 -15.86885 -47.91602 3479 ft 19 kts 176°
2026-04-23 14:43 -15.87023 -47.91592 3479 ft 19 kts 175°
2026-04-23 14:43 -15.87161 -47.91583 3476 ft 18 kts 184°
2026-04-23 14:43 -15.87233 -47.91655 3473 ft 10 kts 229°
2026-04-23 14:43 -15.87294 -47.91706 3470 ft 13 kts 259°
2026-04-23 14:44 -15.87302 -47.91814 3470 ft 16 kts 266°
2026-04-23 14:44 -15.87302 -47.91926 3475 ft 10 kts 300°
2026-04-23 14:44 -15.87261 -47.91936 3477 ft 4 kts
2026-04-23 14:44 -15.87249 -47.91937 3477 ft 0 kts 356°
2026-04-23 14:45 -15.87250 -47.91937 3477 ft 0 kts 355°
2026-04-23 14:45 -15.87252 -47.91937 3477 ft 0 kts 355°
2026-04-23 14:45 -15.87254 -47.91937 3477 ft 0 kts 356°